• In Portugal
  • List of Countries
  • For 7 days
  • Water Temperature
  • Satellite Maps
  • Weather Map
  • Weather Widgets
  • user-avatar
    Login

    Hourly Weather Farim

    Today, 11 December, Monday

    Time Temperature Precipitation Wind Pressure Humidity
    00:00 +23°C° 0 mm 1 mps 757 mmHg 35%
    01:00 +23°C° 0 mm 1 mps 757 mmHg 35%
    02:00 +22°C° 0 mm 1 mps 757 mmHg 35%
    03:00 +22°C° 0 mm 1 mps 757 mmHg 33%
    04:00 +22°C° 0 mm 1 mps 758 mmHg 31%
    05:00 +21°C° 0 mm 1 mps 758 mmHg 30%
    06:00 +23°C° 0 mm 2 mps 758 mmHg 27%
    07:00 +24°C° 0 mm 2 mps 758 mmHg 24%
    08:00 +26°C° 0 mm 2 mps 759 mmHg 21%
    09:00 +29°C° 0 mm 2 mps 759 mmHg 18%
    10:00 +32°C° 0 mm 2 mps 758 mmHg 15%
    11:00 +37°C° 0 mm 2 mps 758 mmHg 12%
    12:00 +39°C° 0 mm 1 mps 757 mmHg 11%
    13:00 +40°C° 0 mm 1 mps 757 mmHg 10%
    14:00 +39°C° 0 mm 0 mps 756 mmHg 10%
    15:00 +40°C° 0 mm 1 mps 756 mmHg 12%
    16:00 +37°C° 0 mm 1 mps 756 mmHg 14%
    17:00 +35°C° 0 mm 1 mps 756 mmHg 16%
    18:00 +32°C° 0 mm 1 mps 756 mmHg 21%
    19:00 +29°C° 0 mm 2 mps 757 mmHg 25%
    20:00 +27°C° 0 mm 2 mps 757 mmHg 30%
    21:00 +26°C° 0 mm 2 mps 757 mmHg 34%
    22:00 +25°C° 0 mm 1 mps 758 mmHg 37%
    23:00 +24°C° 0 mm 1 mps 758 mmHg 41%

    Tomorrow, 12 December, Tuesday

    Time Temperature Precipitation Wind Pressure Humidity
    00:00 +24°C° 0 mm 1 mps 758 mmHg 41%
    01:00 +23°C° 0 mm 1 mps 758 mmHg 41%
    02:00 +22°C° 0 mm 1 mps 758 mmHg 40%
    03:00 +22°C° 0 mm 1 mps 758 mmHg 37%
    04:00 +21°C° 0 mm 1 mps 758 mmHg 34%
    05:00 +21°C° 0 mm 1 mps 758 mmHg 31%
    06:00 +22°C° 0 mm 1 mps 758 mmHg 27%
    07:00 +24°C° 0 mm 1 mps 758 mmHg 24%
    08:00 +26°C° 0 mm 2 mps 759 mmHg 20%
    09:00 +29°C° 0 mm 2 mps 759 mmHg 17%
    10:00 +32°C° 0 mm 2 mps 758 mmHg 14%
    11:00 +36°C° 0 mm 2 mps 758 mmHg 11%
    12:00 +38°C° 0 mm 2 mps 758 mmHg 11%
    13:00 +39°C° 0 mm 1 mps 757 mmHg 10%
    14:00 +40°C° 0 mm 1 mps 756 mmHg 10%
    15:00 +37°C° 0 mm 1 mps 756 mmHg 12%
    16:00 +37°C° 0 mm 2 mps 756 mmHg 13%
    17:00 +35°C° 0 mm 2 mps 756 mmHg 15%
    18:00 +32°C° 0 mm 2 mps 757 mmHg 17%
    19:00 +29°C° 0 mm 2 mps 757 mmHg 20%
    20:00 +27°C° 0 mm 2 mps 758 mmHg 22%
    21:00 +26°C° 0 mm 2 mps 758 mmHg 24%
    22:00 +25°C° 0 mm 2 mps 758 mmHg 25%
    23:00 +24°C° 0 mm 2 mps 758 mmHg 27%

    Day after tomorrow, 13 December, Wednesday

    Time Temperature Precipitation Wind Pressure Humidity
    00:00 +23°C° 0 mm 2 mps 758 mmHg 28%
    01:00 +23°C° 0 mm 2 mps 758 mmHg 29%
    02:00 +21°C° 0 mm 2 mps 757 mmHg 30%
    03:00 +20°C° 0 mm 2 mps 758 mmHg 28%
    04:00 +20°C° 0 mm 2 mps 758 mmHg 26%
    05:00 +19°C° 0 mm 2 mps 758 mmHg 23%
    06:00 +20°C° 0 mm 2 mps 758 mmHg 20%
    07:00 +23°C° 0 mm 2 mps 759 mmHg 17%
    08:00 +24°C° 0 mm 3 mps 759 mmHg 14%
    09:00 +27°C° 0 mm 3 mps 759 mmHg 12%
    10:00 +30°C° 0 mm 3 mps 759 mmHg 10%
    11:00 +35°C° 0 mm 3 mps 759 mmHg 8%
    12:00 +36°C° 0 mm 2 mps 758 mmHg 9%
    13:00 +37°C° 0 mm 2 mps 757 mmHg 9%
    14:00 +38°C° 0 mm 2 mps 756 mmHg 9%
    15:00 +37°C° 0 mm 2 mps 756 mmHg 11%
    16:00 +35°C° 0 mm 1 mps 756 mmHg 12%
    17:00 +33°C° 0 mm 1 mps 756 mmHg 14%
    18:00 +31°C° 0 mm 1 mps 757 mmHg 16%
    19:00 +29°C° 0 mm 1 mps 757 mmHg 17%
    20:00 +26°C° 0 mm 2 mps 758 mmHg 19%
    21:00 +25°C° 0 mm 2 mps 758 mmHg 19%
    22:00 +25°C° 0 mm 2 mps 758 mmHg 19%
    23:00 +24°C° 0 mm 2 mps 759 mmHg 19%

    14 December, Thursday

    Time Temperature Precipitation Wind Pressure Humidity
    00:00 +23°C° 0 mm 2 mps 758 mmHg 22%
    01:00 +21°C° 0 mm 2 mps 758 mmHg 25%
    02:00 +21°C° 0 mm 2 mps 758 mmHg 27%
    03:00 +20°C° 0 mm 2 mps 758 mmHg 31%
    04:00 +19°C° 0 mm 2 mps 758 mmHg 35%
    05:00 +19°C° 0 mm 2 mps 758 mmHg 38%
    06:00 +20°C° 0 mm 3 mps 759 mmHg 36%
    07:00 +21°C° 0 mm 3 mps 759 mmHg 33%
    08:00 +22°C° 0 mm 4 mps 760 mmHg 30%
    09:00 +26°C° 0 mm 3 mps 759 mmHg 26%
    10:00 +29°C° 0 mm 3 mps 759 mmHg 21%
    11:00 +33°C° 0 mm 3 mps 759 mmHg 16%
    12:00 +35°C° 0 mm 3 mps 758 mmHg 15%
    13:00 +36°C° 0 mm 2 mps 757 mmHg 13%
    14:00 +38°C° 0 mm 2 mps 756 mmHg 12%
    15:00 +37°C° 0 mm 2 mps 756 mmHg 13%
    16:00 +36°C° 0 mm 2 mps 756 mmHg 15%
    17:00 +33°C° 0 mm 1 mps 756 mmHg 16%
    18:00 +31°C° 0 mm 2 mps 757 mmHg 18%
    19:00 +29°C° 0 mm 2 mps 757 mmHg 19%
    20:00 +26°C° 0 mm 2 mps 758 mmHg 21%
    21:00 +25°C° 0 mm 2 mps 758 mmHg 21%
    22:00 +25°C° 0 mm 2 mps 758 mmHg 21%
    23:00 +24°C° 0 mm 2 mps 759 mmHg 20%

    15 December, Friday

    Time Temperature Precipitation Wind Pressure Humidity
    00:00 +24°C° 0 mm 2 mps 758 mmHg 21%
    01:00 +23°C° 0 mm 2 mps 758 mmHg 21%
    02:00 +21°C° 0 mm 2 mps 758 mmHg 22%
    03:00 +21°C° 0 mm 2 mps 758 mmHg 23%
    04:00 +21°C° 0 mm 2 mps 758 mmHg 24%
    05:00 +20°C° 0 mm 2 mps 758 mmHg 24%
    06:00 +21°C° 0 mm 3 mps 759 mmHg 23%
    07:00 +24°C° 0 mm 3 mps 759 mmHg 22%
    08:00 +25°C° 0 mm 3 mps 760 mmHg 21%
    09:00 +28°C° 0 mm 3 mps 759 mmHg 18%
    10:00 +31°C° 0 mm 3 mps 759 mmHg 15%
    11:00 +35°C° 0 mm 3 mps 759 mmHg 12%
    12:00 +36°C° 0 mm 3 mps 758 mmHg 12%
    13:00 +38°C° 0 mm 3 mps 757 mmHg 11%
    14:00 +39°C° 0 mm 2 mps 756 mmHg 10%
    15:00 +38°C° 0 mm 2 mps 756 mmHg 12%
    16:00 +37°C° 0 mm 2 mps 756 mmHg 13%
    17:00 +34°C° 0 mm 1 mps 756 mmHg 14%
    18:00 +32°C° 0 mm 2 mps 757 mmHg 16%
    19:00 +30°C° 0 mm 2 mps 758 mmHg 17%
    20:00 +27°C° 0 mm 2 mps 758 mmHg 19%
    21:00 +26°C° 0 mm 2 mps 758 mmHg 19%
    22:00 +25°C° 0 mm 2 mps 759 mmHg 19%
    23:00 +25°C° 0 mm 2 mps 759 mmHg 19%

    16 December, Saturday

    Time Temperature Precipitation Wind Pressure Humidity
    00:00 +24°C° 0 mm 2 mps 758 mmHg 19%
    01:00 +23°C° 0 mm 2 mps 758 mmHg 19%
    02:00 +23°C° 0 mm 2 mps 758 mmHg 19%
    03:00 +21°C° 0 mm 2 mps 758 mmHg 20%
    04:00 +21°C° 0 mm 2 mps 758 mmHg 20%
    05:00 +20°C° 0 mm 2 mps 758 mmHg 20%
    06:00 +23°C° 0 mm 2 mps 759 mmHg 18%
    07:00 +24°C° 0 mm 3 mps 759 mmHg 17%
    08:00 +26°C° 0 mm 3 mps 760 mmHg 16%
    09:00 +29°C° 0 mm 3 mps 759 mmHg 14%
    10:00 +33°C° 0 mm 3 mps 759 mmHg 12%
    11:00 +37°C° 0 mm 3 mps 759 mmHg 10%
    12:00 +38°C° 0 mm 3 mps 758 mmHg 9%
    13:00 +39°C° 0 mm 3 mps 757 mmHg 9%
    14:00 +40°C° 0 mm 2 mps 756 mmHg 9%
    15:00 +39°C° 0 mm 2 mps 757 mmHg 10%
    16:00 +38°C° 0 mm 2 mps 757 mmHg 11%
    17:00 +36°C° 0 mm 1 mps 757 mmHg 13%
    18:00 +34°C° 0 mm 2 mps 757 mmHg 14%
    19:00 +31°C° 0 mm 2 mps 758 mmHg 16%
    20:00 +29°C° 0 mm 2 mps 759 mmHg 18%
    21:00 +27°C° 0 mm 2 mps 759 mmHg 19%
    22:00 +26°C° 0 mm 2 mps 759 mmHg 20%
    23:00 +25°C° 0 mm 1 mps 759 mmHg 22%
    Show more